Weather Service Report


253 
ASCA42 TJSJ 201211
RWRPR 
PUERTO RICO/U.S. VIRGIN ISLANDS HOURLY WEATHER ROUNDUP
NATIONAL WEATHER SERVICE SAN JUAN PR
800 AM AST SUN APR 20 2014

PRZ001-004-201300-
PUERTO RICO
  
CITY           SKY/WX    TMP DP  RH WIND       PRES   REMARKS
SAN JUAN LMM   MOSUNNY   81  70  69 E6        30.09R                  
AGUADILLA      PTSUNNY   77  68  73 E7        30.08R                  
CEIBA          MOSUNNY   81  70  69 E16G22    30.11R                  
$$

PRZ006-007-201300-
U.S. VIRGIN ISLANDS
  
CITY           SKY/WX    TMP DP  RH WIND       PRES   REMARKS
CHARLOTTE AMA  MOSUNNY   81  72  74 SE15      30.08R                  
CHRISTIANSTED  RAIN      77  70  78 E15G30    30.09                   
$$

HOURLY WEATHER ROUNDUP FOR THE NEWS MEDIA
  
CITY           SKY/WX    TMP DP  RH WIND       PRES   REMARKS
MIAMI          PTSUNNY   66  59  78 NW7       30.02R                  
ORLANDO        CLOUDY    62  57  83 N10       30.04R                  
NEW YORK       PTSUNNY   48  25  40 NE14      30.49R                  
NEWARK         PTSUNNY   48  26  42 NE12      30.48R                  
CHICAGO        MOCLDY    45  30  55 S8        30.23R                  
HARTFORD       SUNNY     45  27  49 NE7       30.49R                  
BOSTON         MOSUNNY   44  23  43 N9        30.52R                  
DALLAS         LGT RAIN  65  56  72 S10       30.10R                  
PHILADELPHIA   CLOUDY    48  31  51 E13       30.45R                  

Return to Home page


Western Regional Climate Center, wrcc@dri.edu